Edwards AFB, CA

11:25 PM PST on January 21, 2018 (GMT -0800)
Edwards Air Force Base

Weather History for KEDW - November, 2011

Change the Weather History Date:

Sunday, November 6, 2011

  Actual Average Record
Temperature  
Mean Temperature 46 °F -  
Max Temperature 56 °F 66 °F 83 °F (2007)
Min Temperature 36 °F 37 °F 28 °F (2013)
Degree Days  
Heating Degree Days 20    
Moisture  
Dew Point 36 °F    
Average Humidity 70    
Maximum Humidity 100    
Minimum Humidity 37    
Precipitation  
Precipitation 0.01 in - - ()
Sea Level Pressure  
Sea Level Pressure 29.93 in    
Wind  
Wind Speed 14 mph (WSW)    
Max Wind Speed 21 mph    
Max Gust Speed 26 mph    
Visibility 12 miles    
Events Rain    
Averages and records for this station are not official NWS values.
T = Trace of Precipitation, MM = Missing Value Source: NWS Daily Summary

Daily Weather History Graph

Daily Weather History Graph

Search for Another Location

Airport or City:

Trip Planner

Search our weather history database for the weather conditions in past years. The results will help you decide how hot, cold, wet, or windy it might be!

Date:

Astronomy

Nov. 06, 2011 Rise Set
Actual Time 6:16 AM PST 4:52 PM PST
Civil Twilight 5:50 AM PST 5:19 PM PST
Nautical Twilight 5:20 AM PST 5:49 PM PST
Astronomical Twilight 4:50 AM PST 6:19 PM PST
Moon 2:32 PM PST (11/6) 2:35 AM PST (11/6)
Length of Visible Light 11h 28m
Length of Day
10h 35m
Waxing Gibbous, 86% of the Moon is Illuminated
Nov 6
Waxing Gibbous
Nov 10
Full
Nov 18
Last Quarter
Nov 24
New
Dec 2
First Quarter

Hourly Weather History & Observations

Time (PST) Temp. Windchill Dew Point Humidity Pressure Visibility Wind Dir Wind Speed Gust Speed Precip Events Conditions
12:55 AM 38.8 °F 34.6 °F 29.8 °F 70% 29.95 in 10.0 mi South 5.8 mph - N/A   Clear
1:55 AM 36.3 °F 32.5 °F 29.1 °F 75% 29.93 in 10.0 mi South 4.6 mph - N/A   Clear
1:55 AM 42.3 °F 34.4 °F 30.2 °F 62% 29.91 in 10.0 mi WSW 16.1 mph - N/A   Partly Cloudy
1:59 AM 42.8 °F 35.1 °F 30.2 °F 61% 29.91 in 10.0 mi SW 16.1 mph - N/A   Scattered Clouds
2:05 AM 42.8 °F 34.8 °F 30.2 °F 61% 29.91 in 10.0 mi SW 17.3 mph - N/A   Mostly Cloudy
2:28 AM 42.8 °F 34.5 °F 28.4 °F 57% 29.91 in 10.0 mi WSW 18.4 mph 26.5 mph N/A   Scattered Clouds
2:55 AM 43.2 °F 34.7 °F 29.5 °F 59% 29.90 in 10.0 mi WSW 19.6 mph - N/A   Scattered Clouds
3:42 AM 42.8 °F 35.1 °F 32.0 °F 66% 29.90 in 10.0 mi WSW 16.1 mph - N/A   Mostly Cloudy
3:55 AM 43.0 °F 36.8 °F 32.7 °F 67% 29.91 in 10.0 mi SW 11.5 mph - N/A   Mostly Cloudy
4:55 AM 43.7 °F 36.3 °F 35.4 °F 73% 29.91 in 10.0 mi WSW 16.1 mph - N/A   Overcast
5:27 AM 44.6 °F 37.2 °F 37.4 °F 76% 29.91 in 10.0 mi WSW 17.3 mph 25.3 mph N/A   Scattered Clouds
5:31 AM 44.6 °F 36.6 °F 37.4 °F 76% 29.91 in 10.0 mi WSW 19.6 mph 25.3 mph N/A Rain Light Rain
5:32 AM 44.6 °F 36.4 °F 37.4 °F 76% 29.91 in 10.0 mi WSW 20.7 mph 25.3 mph N/A   Light Drizzle
5:55 AM 44.8 °F 37.7 °F 39.4 °F 81% 29.92 in 50.0 mi WSW 16.1 mph - N/A   Mostly Cloudy
6:23 AM 44.6 °F 38.1 °F 39.2 °F 81% 29.93 in 30.0 mi WSW 13.8 mph - N/A Rain Light Rain
6:26 AM 44.6 °F 37.8 °F 39.2 °F 81% 29.93 in 30.0 mi WSW 15.0 mph - N/A Rain Light Rain
6:27 AM 44.6 °F 37.8 °F 39.2 °F 81% 29.93 in 30.0 mi WSW 15.0 mph - N/A Rain Light Rain
6:36 AM 44.6 °F 36.9 °F 41.0 °F 87% 29.94 in 10.0 mi WSW 18.4 mph - N/A Rain Light Rain
6:43 AM 44.6 °F 36.9 °F 42.8 °F 93% 29.95 in 10.0 mi WSW 18.4 mph - N/A Rain Light Rain
6:55 AM 43.7 °F 36.6 °F 43.5 °F 99% 29.96 in 9.0 mi West 15.0 mph - 0.00 in Rain Light Rain
7:33 AM 42.8 °F 36.6 °F 42.8 °F 100% 29.95 in 10.0 mi SW 11.5 mph - N/A   Mostly Cloudy
7:37 AM 42.8 °F 36.2 °F 42.8 °F 100% 29.95 in 10.0 mi SSW 12.7 mph - N/A   Scattered Clouds
7:42 AM 42.8 °F 36.6 °F 42.8 °F 100% 29.94 in 10.0 mi SSW 11.5 mph - N/A   Mostly Cloudy
7:55 AM 44.1 °F 37.1 °F 44.1 °F 100% 29.95 in 10.0 mi SSW 15.0 mph - 0.01 in   Mostly Cloudy
8:55 AM 46.6 °F - 45.1 °F 95% 29.97 in 20.0 mi SW 13.8 mph - N/A   Mostly Cloudy
9:11 AM 46.4 °F 40.4 °F 44.6 °F 93% 29.96 in 20.0 mi SW 13.8 mph - N/A   Mostly Cloudy
9:42 AM 48.2 °F - 41.0 °F 76% 29.97 in 20.0 mi N/A N/A - N/A   Scattered Clouds
9:55 AM 49.5 °F - 40.5 °F 71% 29.97 in 20.0 mi SSW 17.3 mph - N/A   Scattered Clouds
10:18 AM 51.8 °F - 39.2 °F 62% 29.97 in 20.0 mi SW 18.4 mph 24.2 mph N/A   Scattered Clouds
10:55 AM 52.7 °F - 36.7 °F 55% 29.96 in 30.0 mi SW 17.3 mph 26.5 mph N/A   Scattered Clouds
11:55 AM 54.7 °F - 33.3 °F 44% 29.93 in 30.0 mi WSW 15.0 mph - N/A   Scattered Clouds
12:55 PM 54.0 °F - 30.2 °F 40% 29.91 in 30.0 mi West 15.0 mph - N/A   Scattered Clouds
1:34 PM 55.4 °F - 30.2 °F 38% 29.90 in 30.0 mi West 15.0 mph 21.9 mph N/A   Scattered Clouds
1:55 PM 54.9 °F - 28.6 °F 37% 29.89 in 40.0 mi WNW 17.3 mph - N/A   Scattered Clouds
2:55 PM 53.6 °F - 28.4 °F 38% 29.90 in 50.0 mi WNW 20.7 mph - N/A   Partly Cloudy
3:55 PM 51.8 °F - 30.2 °F 44% 29.90 in 50.0 mi West 19.6 mph 25.3 mph N/A   Partly Cloudy
3:56 PM 51.8 °F - 30.2 °F 44% 29.90 in 50.0 mi West 19.6 mph 25.3 mph N/A   Partly Cloudy
4:55 PM 48.2 °F - 33.8 °F 58% 29.93 in 50.0 mi West 13.8 mph - N/A   Partly Cloudy
5:55 PM 46.4 °F 40.7 °F 32.0 °F 57% 29.94 in 30.0 mi West 12.7 mph - N/A   Partly Cloudy
6:55 PM 44.6 °F 37.8 °F 33.8 °F 66% 29.95 in 30.0 mi WSW 15.0 mph - N/A   Partly Cloudy
7:55 PM 42.8 °F 38.0 °F 33.8 °F 70% 29.98 in 30.0 mi SSW 8.1 mph - N/A   Partly Cloudy
8:55 PM 42.8 °F 37.5 °F 32.0 °F 66% 29.99 in 30.0 mi SSW 9.2 mph - N/A   Partly Cloudy
9:55 PM 39.2 °F 35.0 °F 32.0 °F 75% 30.00 in 30.0 mi SSW 5.8 mph - N/A   Partly Cloudy
10:55 PM 39.0 °F 34.0 °F 31.1 °F 73% 29.99 in 10.0 mi SSW 6.9 mph - N/A   Clear